LEMUR-2-ROMACOSTE (43048 NORAD) Tracking and Keplerian Element Data

This shows tracking and keplerian element data for the satellite.

Feedback or suggestion? Click here.




ElementValue
Catalog43048
NameLEMUR-2-ROMACOSTE
Epoch Orbit21505
Epoch Day269.65929047
Epoch Year2021
RAAN250.2051
Inclination51.6316
Eccentricity0.0003577
Argument of Perigee58.5621
Mean Anonmoly301.5722
Mean Motion15.62645436
Decay Rate0.00042253
L11 43048U 17071M 21269.65929047 .00042253 00000-0 46613-3 0 9996
L22 43048 51.6316 250.2051 0003577 58.5621 301.5722 15.62645436215052

Live tracking and technical data element details for LEMUR-2-ROMACOSTE (NORAD 43048). LEMUR-2-ROMACOSTE can be tracked NOW for your location showing map with azimuth and elevation plus other details from your city location.

Track the satellite on the map from your city or location and see movement details for azimuth, elevation, latitude, longitude, range, height, and movement on the map or in text.







IsCatalogInMostPopularTable: catalog: 43048, numindb: 521
Update: records affected: 1



GetName: 43048 LEMUR-2-ROMACOSTE

Hit Count: updated at: Tue, 28 Sep 2021 17:21:13 GMT